260P/McNaught (2019)

Japanese version
Home page
Updated on December 28, 2022

---------------------------------------------------------------------

* Profile

* Pictures

* Orbital Elements

Epoch 2019 Aug. 25.0 TT = JDT 2458720.5                                         
T 2019 Sept.  9.95587 TT                                Rudenko                 
q   1.4167136            (2000.0)            P               Q                  
n   0.14302599     Peri.   18.38846     +0.98888131     -0.14075694             
a   3.6212575      Node   349.35529     +0.08127717     +0.78172993             
e   0.6087785      Incl.   15.05218     +0.12453019     +0.60752432             
P   6.89                                                                        
From 6656 observations 2005 May 20-2020 Mar. 10, mean residual 0".7.            

* Finding Charts

* Magnitudes Graph

        m1 = 9.0 + 5 log d + 25.0 log r(t - 15)

---------------------------------------------------------------------

The orbital elements are published on M.P.E.C. 2020-S188.
The charts are made with StellaNavigator Ver.8 (AstroArts).
The magnitudes graphs are made with Comet for Windows.

---------------------------------------------------------------------

Copyright(C) Seiichi Yoshida (comet@aerith.net). All rights reserved.